Погода в Боровском

Россия / Тюменская область     57°02′37″N   65°43′19″E
темп.,
°C
ветер,
м/с
пор.,
м/с
влажн.,
%
обл.,
%
осадки,
мм/ч
давл.,
гПа
погр.,
м
21 июня, пн
пн2123:00+8сз81785100 0.5 10081429
02:00+9ссз81689100 0.3 10111067
05:00+10ссз81482100 0.4 10131024
08:00+10ссз71488100 0.1 1015846
11:00+13с61074100 0.3 1018938
14:00+15с686393 0.1 10191184
17:00+17с4749100 0.2 10191831
20:00+15с2562100 0.0 1019218
22 июня, вт
вт2223:00+13с2369100 0.0 102088
02:00+11сз117298 0.0 102014
05:00+12з1171100 0.0 102043
08:00+13з1165100 0.0 101988
11:00+15зюз1159100 0.0 1019381
14:00+15ю126288 0.0 1018273
17:00+19св124992 0.0 10171169
20:00+15всв2469100 0.0 1016201
23 июня, ср
ср2323:00+13в1171100 0.0 101612
02:00+12с267592 0.0 1016175
05:00+10с39775 0.0 1017284
08:00+14ссв58590 0.0 1018965
11:00+17ссв574421 0.0 10192004
14:00+19св473526 0.0 10192332
17:00+18всв464088 0.0 10191669
20:00+15всв3650100 0.0 1020438
24 июня, чт
чт2423:00+10вюв11655 0.0 102010
02:00+9зюз22675 0.0 102029
05:00+9з2770100 0.0 1020149
08:00+16зсз365069 0.0 1018465
11:00+21сз463191 0.0 10162120
14:00+24сз482913 0.0 10152874
17:00+25сз48319 0.0 10132855
20:00+21в235256 0.0 101255
25 июня, пт
пт2523:00+15ююв2362100 0.0 101249
02:00+15ююз2368100 0.0 101147
05:00+15ююз2491100 0.4 100997
08:00+15ю2599100 1.7 1008211
11:00+18ююз1395100 1.8 1007321
14:00+19в4491100 0.2 1008424
17:00+17вюв4484100 0.3 1009466
20:00+15в379090 0.0 1010446